Cloud_Cover
0 0 0 0 0 0 0 0 0 0 0 0 0 0 0 0 0 0 0 0 3 1 0 0 0 0 0 0 0 0 0 0 0 0 0 0 6 20 8 90 100 100 100
0 0 0 0 0 0 0 0 0 0 0 0 0 0 0 0 0 0 0 0 0 0 0 0 0 0 0 0 0 0 0 0 0 0 0 0 10 100 100 68 90 78 100
0 0 0 0 0 0 0 0 0 0 0 0 0 0 0 0 0 1 0 0 0 0 0 0 0 0 0 0 0 0 0 0 0 0 0 0 3 5 5 5 85 100 100
0 0 0 0 0 0 0 0 0 0 0 0 0 0 0 0 5 5 5 0 0 0 0 0 0 5 0 0 0 0 0 0 0 0 0 0 3 0 5 2 15 75 100
0 0 0 0 0 0 0 0 0 0 0 0 0 0 0 2 5 7 5 5 0 0 0 0 4 0 0 0 0 0 0 0 0 0 0 0 5 5 8 5 5 5 24
0 0 0 0 0 0 0 0 0 0 0 0 0 0 0 0 5 0 5 0 0 0 0 1 3 0 3 1 0 0 0 5 5 5 6 4 26 48 64 5 5 3 4
0 0 0 0 0 0 0 0 0 0 0 0 0 0 0 0 0 1 0 0 0 0 0 5 0 0 1 0 32 12 5 0 0 1 1 4 5 5 0 0 9 100 80
0 0 0 0 0 0 0 0 0 0 0 0 0 0 0 0 0 0 5 0 0 0 2 2 0 0 0 1 0 2 5 5 6 5 1 4 2 3 0 4 90 100 100
0 0 0 0 0 0 0 0 0 0 0 0 0 0 0 0 0 0 6 0 0 5 5 0 0 1 5 5 4 5 7 99 76 71 61 3 2 0 7 94 100 100 100
0 0 0 0 0 0 0 0 0 13 1 0 3 5 1 0 6 5 25 0 0 5 5 0 0 5 5 5 1 0 19 33 28 0 9 19 22 34 72 100 100 100 100
0 0 0 0 4 5 3 4 0 2 22 43 30 4 5 5 3 4 30 4 1 8 16 2 0 1 13 31 31 25 30 84 98 100 100 100 100 100 100 90 71 98 100
5 3 0 0 5 85 86 5 5 5 14 20 28 40 29 14 34 41 10 64 1 5 2 4 3 0 25 44 93 100 100 100 100 100 100 100 100 100 100 100 100 100 100
50 60 50 1 2 5 58 5 6 23 5 24 38 37 22 6 22 73 60 24 23 22 9 0 5 49 55 85 100 100 100 100 100 100 100 100 100 94 90 91 54 87 97
70 100 100 100 2 2 85 9 39 54 40 7 45 8 5 98 100 92 76 85 88 66 25 12 40 98 100 100 100 100 100 100 100 100 100 100 100 100 64 54 44 9 45
81 47 90 96 28 0 58 71 76 99 70 31 36 16 28 63 33 60 43 29 38 59 73 97 100 100 100 100 100 100 100 100 100 100 100 97 66 26 29 4 34 30 78
5 5 7 14 15 29 62 69 99 98 100 100 99 55 80 79 100 100 100 100 100 100 100 100 100 100 100 100 100 100 54 23 36 83 95 100 100 100 99 43 46 94 94
5 5 11 19 46 100 100 100 97 99 100 100 100 100 100 100 100 100 100 100 100 100 100 99 100 100 100 100 59 27 23 11 13 69 99 100 100 100 100 100 100 100 100
0 71 1 0 0 93 100 100 50 13 80 100 100 99 93 100 100 100 100 70 98 88 98 100 100 99 55 9 10 4 13 93 100 100 100 72 100 100 100 100 86 84 99
5 0 0 17 53 82 100 98 47 9 2 30 69 96 100 100 100 100 100 100 100 100 100 100 98 53 27 95 97 100 100 100 100 100 100 100 100 100 86 45 51 83 81
0 26 31 21 100 100 100 100 52 29 9 10 12 28 47 48 100 100 100 100 100 100 100 53 57 62 89 90 99 100 100 100 100 100 100 98 99 94 67 54 31 54 100
0 0 10 7 84 100 100 100 100 93 69 87 100 100 100 100 100 100 100 100 100 100 100 100 100 100 100 100 100 100 100 100 90 100 100 100 100 100 99 73 100 58 62
0 0 0 13 47 98 100 100 100 96 100 100 100 100 100 100 100 100 100 100 100 100 100 100 100 100 100 100 100 100 100 100 100 100 100 97 93 100 100 100 98 96 100
5 5 23 65 89 99 100 100 100 100 100 100 100 100 100 100 100 100 100 100 100 100 100 100 100 100 100 100 100 100 97 89 38 89 99 100 100 100 94 64 88 100 100
63 99 82 100 100 100 100 100 100 100 95 100 100 100 100 100 100 100 100 100 100 100 100 100 100 100 91 88 62 30 42 54 33 0 29 63 78 99 97 58 37 54 63
70 100 100 100 100 100 100 100 100 100 100 100 100 100 100 100 100 100 100 100 100 100 100 100 100 98 99 98 76 76 100 100 74 45 0 2 2 4 8 28 67 13 5
100 100 100 100 100 100 100 100 100 100 100 100 100 100 100 100 100 100 84 66 40 24 16 11 0 2 12 12 11 44 79 87 55 91 16 2 4 34 100 92 96 5 23